Weather History for Saipan, MP

Change the Weather History Date:

Thursday, November 22, 2012

  Actual Average Record
Temperature  
Mean Temperature 84 °F -  
Max Temperature 90 °F 84 °F 90 °F (2012)
Min Temperature 77 °F 76 °F 75 °F (1997)
Cooling Degree Days 18    
Growing Degree Days 34 (Base 50)    
Moisture  
Dew Point 76 °F    
Average Humidity 83    
Maximum Humidity 93    
Minimum Humidity 65    
Precipitation  
Precipitation 0.67 in - - ()
Sea Level Pressure  
Sea Level Pressure 29.93 in    
Wind  
Wind Speed 12 mph (NE)    
Max Wind Speed 17 mph    
Max Gust Speed 23 mph    
Visibility 9 miles    
Events Rain    
Averages and records for this station are not official NWS values.
T = Trace of Precipitation, MM = Missing Value Source: NWS Daily Summary

Daily Weather History Graph

Daily Weather History Graph

Search for Another Location

Airport:

Trip Planner

Search our weather history database for the weather conditions in past years. The results will help you decide how hot, cold, wet, or windy it might be!

Date:

Astronomy

Nov. 22, 2012 Rise Set
Actual Time 6:22 AM ChST 5:44 PM ChST
Civil Twilight 5:59 AM ChST 6:06 PM ChST
Nautical Twilight 5:33 AM ChST 6:33 PM ChST
Astronomical Twilight 5:07 AM ChST 6:59 PM ChST
Moon 1:22 PM ChST (11/22) 12:56 AM ChST (11/22)
Length of Visible Light 12h 07m
Length of Day
11h 21m
Waxing Gibbous, 65% of the Moon is Illuminated
Nov 22
Waxing Gibbous
Nov 29
Full
Dec 7
Last Quarter
Dec 13
New
Dec 20
First Quarter

Hourly Weather History & Observations

Time (ChST) Temp. Heat Index Dew Point Humidity Pressure Visibility Wind Dir Wind Speed Gust Speed Precip Events Conditions
12:54 AM 80.1 °F 85.1 °F 75.0 °F 85% 29.95 in 10.0 mi NE 12.7 mph - N/A   Scattered Clouds
1:54 AM 80.1 °F 85.1 °F 75.0 °F 85% 29.94 in 10.0 mi NE 15.0 mph - N/A   Scattered Clouds
2:54 AM 79.0 °F - 75.0 °F 88% 29.92 in 10.0 mi NE 11.5 mph - 0.03 in   Scattered Clouds
3:54 AM 79.0 °F - 75.0 °F 88% 29.92 in 10.0 mi NE 12.7 mph - N/A   Scattered Clouds
4:54 AM 79.0 °F - 75.0 °F 88% 29.92 in 10.0 mi NE 11.5 mph - N/A   Scattered Clouds
5:54 AM 79.0 °F - 75.9 °F 90% 29.93 in 10.0 mi NE 10.4 mph - N/A   Mostly Cloudy
6:27 AM 78.8 °F - 75.2 °F 89% 29.87 in 6.0 mi ENE 4.6 mph - 0.24 in Rain Light Rain
6:46 AM 77.0 °F - 73.4 °F 89% 29.87 in 6.0 mi NE 5.8 mph - 0.37 in Rain Light Rain
6:54 AM 77.0 °F - 73.9 °F 90% 29.94 in 10.0 mi NE 8.1 mph - 0.37 in   Mostly Cloudy
7:01 AM 78.8 °F - 75.2 °F 89% 29.88 in 10.0 mi NE 9.2 mph - N/A   Mostly Cloudy
7:54 AM 78.1 °F - 75.9 °F 93% 29.96 in 10.0 mi NE 11.5 mph - N/A   Mostly Cloudy
8:54 AM 80.1 °F 85.4 °F 75.9 °F 87% 29.98 in 10.0 mi ENE 15.0 mph - N/A   Scattered Clouds
9:54 AM 82.0 °F 90.2 °F 77.0 °F 85% 29.97 in 10.0 mi ENE 15.0 mph - N/A   Scattered Clouds
10:54 AM 87.1 °F 97.3 °F 75.9 °F 69% 29.96 in 10.0 mi NE 15.0 mph - N/A   Mostly Cloudy
11:54 AM 87.1 °F 97.3 °F 75.9 °F 69% 29.93 in 10.0 mi ENE 17.3 mph - N/A   Scattered Clouds
12:54 PM 90.0 °F 102.5 °F 77.0 °F 65% 29.91 in 10.0 mi NE 15.0 mph - N/A   Scattered Clouds
1:54 PM 88.0 °F 98.5 °F 75.9 °F 67% 29.89 in 10.0 mi ENE 15.0 mph - N/A   Scattered Clouds
2:54 PM 88.0 °F 97.5 °F 75.0 °F 65% 29.89 in 10.0 mi NE 16.1 mph - N/A   Scattered Clouds
3:54 PM 84.0 °F 91.9 °F 75.0 °F 74% 29.90 in 10.0 mi NE 12.7 mph - N/A   Scattered Clouds
4:54 PM 82.9 °F 91.8 °F 77.0 °F 82% 29.92 in 10.0 mi NE 12.7 mph - 0.00 in   Scattered Clouds
5:54 PM 81.0 °F 87.3 °F 75.9 °F 85% 29.93 in 10.0 mi NNE 11.5 mph - 0.00 in   Scattered Clouds
6:54 PM 80.1 °F 85.4 °F 75.9 °F 87% 29.94 in 10.0 mi NE 12.7 mph - N/A   Scattered Clouds
7:54 PM 82.0 °F 88.6 °F 75.0 °F 79% 29.96 in 10.0 mi NE 15.0 mph - N/A   Scattered Clouds
8:54 PM 82.0 °F 89.4 °F 75.9 °F 82% 29.98 in 10.0 mi NNE 11.5 mph - N/A   Scattered Clouds
9:01 PM 82.4 °F 89.5 °F 75.2 °F 79% 29.91 in 10.0 mi NNE 13.8 mph 20.7 mph N/A   Mostly Cloudy
9:16 PM 82.4 °F 90.9 °F 77.0 °F 84% 29.91 in 4.0 mi NNE 12.7 mph - 0.04 in Rain Heavy Rain
9:24 PM 82.4 °F 90.9 °F 77.0 °F 84% 29.91 in 10.0 mi NE 17.3 mph 20.7 mph 0.04 in Rain Light Rain
9:44 PM 80.6 °F 86.2 °F 75.2 °F 84% 29.91 in 10.0 mi NE 10.4 mph - 0.04 in   Mostly Cloudy
9:54 PM 81.0 °F 87.3 °F 75.9 °F 85% 29.98 in 10.0 mi NNE 10.4 mph - 0.04 in   Scattered Clouds
10:17 PM - - - N/A% 29.91 in 4.0 mi ENE 17.3 mph 23.0 mph 0.02 in Rain Rain
10:24 PM - - - N/A% 29.92 in 4.0 mi NE 9.2 mph 23.0 mph 0.06 in Rain Light Rain
10:37 PM - - - N/A% 29.92 in 2.5 mi NNE 11.5 mph - 0.15 in Rain Heavy Rain
10:39 PM - - - N/A% 29.92 in 3.0 mi NNE 12.7 mph - 0.17 in Rain Rain
10:54 PM 78.1 °F - 75.0 °F 90% 29.98 in 4.0 mi NNE 9.2 mph - 0.23 in Rain Light Rain
11:08 PM 78.8 °F - 75.2 °F 89% 29.91 in 10.0 mi NNE 11.5 mph - 0.00 in   Overcast
11:22 PM 78.8 °F - 75.2 °F 89% 29.92 in 10.0 mi NE 13.8 mph - 0.00 in   Overcast
11:54 PM 79.0 °F - 75.0 °F 88% 29.98 in 10.0 mi NNE 10.4 mph - 0.00 in   Overcast